Registrácia


Zabudnuté heslo / Lost Password

Dievča týždňa - klikni pre zväčšenie
Dievča týždňa
Chlap týždňa - klikni pre zväčšenie
Chlap týždňa
nasetipy.com - filmová diskusia nasetipy.com - politické kecy

Zažite skutočné výhry a výnimočné okamihy – alebo si vytvorte ten svoj – na jackpotovej stránke.

Prosím, ak máte záujem tipovať vo Fortune, zaregistrujte sa cez nasledujúci textový odkaz.

Registrácia SK zákazníkov

Registrácia CZ zákazníkov

Live Výsledky

Ak sa Vám NašeTipy páčia, zdieľajte

Detailné štatistiky pre nick: manutd78




graph ROI
Tento mesiac: 0 %
Tento rok: 0 %
Celkovo: -5.34 %
graph Počet OK/KO
Tento mesiac: 0 / 0
Tento rok: 0 / 0
Celkovo: 3342 / 3100
graph Pozri si jeho Detailné štatistiky
podľa športov



OK tip | KO tip | Nevyhodnotený tip | Storno tip icon arrow  ako sa u nás počíta ROI?

Dátum ZápasTipVkladKurzVýsl.Zadanie tipu 
13.09.2017FutbalTottenham-Dortmund1 DNB51.6603:12017-09-13 08:23:25
12.09.2017FutbalChelsea-Karabachnad 2,5 golu61.5906:02017-09-12 20:21:24
12.09.2017FutbalBristol Rovers-Oldham161.6702:32017-09-12 20:15:54
13.09.2017FutbalLiverpool-Sevilla151.6802:22017-09-12 14:00:06
12.09.2017FutbalShrewsbury-Southend122.2201:02017-09-11 20:47:16
11.09.2017Ľadový hokejChabarovsk-Jokerit252.0002:42017-09-10 21:31:31
11.09.2017Ľadový hokejVladivostok-Slovan141.9002:1pp2017-09-10 21:30:18
11.09.2017FutbalSeattle-LA Galaxynad 2,5 golu61.6001:12017-09-10 21:29:01
10.09.2017FutbalYoung Boys-Lugano151.5903:02017-09-10 14:02:37
10.09.2017Ľadový hokejBremerhaven-Eisbarennad 5,5,golu61.8502:72017-09-10 12:49:53
09.09.2017FutbalStoke-Man UTD251.6002:22017-09-09 09:21:17
08.09.2017Ľadový hokejJekaterinburg-Chabarovsk171.9008:12017-09-08 05:22:23
07.09.2017FutbalViborg-Aalborgnad 2,5 golu31.8501:5pp2017-09-07 17:26:13
07.09.2017FutbalNY City-Kansasnad 2,5 golu51.8501:02017-09-05 21:17:41
08.09.2017FutbalHamilton-Celticnad 2,5 golu51.5001:42017-09-05 21:17:06
05.09.2017Ľadový hokejSlovan-Omsk251.9501:42017-09-04 21:07:40
05.09.2017Ľadový hokejMagnitogorsk-Vladivostok171.6004:22017-09-04 21:02:46
03.09.2017Ľadový hokejIFK-Mnichov161.9502:42017-09-03 12:45:29
03.09.2017Ľadový hokejMagnitogorsk-Astana141.6003:2pp2017-09-03 12:44:13
02.09.2017FutbalSwindon-Barnet141.9201:42017-09-02 09:39:15
02.09.2017Ľadový hokejTPS-Mountfield161.8003:12017-09-01 20:55:10
01.09.2017FutbalCesko-Nemeckonad 2,5 golu51.7001:22017-09-01 14:00:23
01.09.2017Ľadový hokejBystrica-Wolfsburg272.2500:12017-09-01 13:43:01
01.09.2017Ľadový hokejSlovan-Novosibirsk2 DNB71.8802:12017-08-31 15:51:51
31.08.2017FutbalFrancuzsko-Holandsko141.5604:02017-08-31 05:19:53
31.08.2017FutbalJaponsko-Australia151.9002:02017-08-31 05:17:10
31.08.2017Ľadový hokejManheim-Trinec172.2006:22017-08-31 05:14:59
30.08.2017Ľadový hokejSlovan-Dynamo242.5004-22017-08-29 21:25:38
30.08.2017FutbalKawasaki-Tokyo161.7702:02017-08-29 21:21:25
30.08.2017Ľadový hokejAstana-Nogorod252.2004:22017-08-29 21:12:00
29.08.2017Ľadový hokejNižnekamsk-Togliatti171.6801:32017-08-29 15:00:29
28.08.2017FutbalFylde-Barrow152.1001:02017-08-28 14:20:14
28.08.2017FutbalSeattle-Portland161.7001:12017-08-27 21:22:17
28.08.2017FutbalTemperley-River Plate261.5700:12017-08-27 21:16:22
27.08.2017FutbalDynamo Moskva-Slovan151.670zle zadane2017-08-26 20:43:55
26.08.2017Ľadový hokejNovosibirsk-Cerepovec141.8702:12017-08-26 08:19:05
25.08.2017Ľadový hokejMagnitogorsk-čeljabinsk141.7502:12017-08-25 08:09:16
25.08.2017FutbalJaroslavl-Slovannad 4,5 golu71.8505:12017-08-24 13:56:12
24.08.2017Ľadový hokejNovosibirsk-Riga141.8002:12017-08-24 09:29:41
24.08.2017FutbalSkive-Esbjerg252.0001:22017-08-24 09:21:22